This is the latest recevied weather packets stored in our database for station/object KQ4PPF. If no packets are shown the sender has not sent any weather packets the latest 10 day(s).
| Time | Temp. | Humidity | Pressure | Rain* | Wind** | Luminosity | Snow |
|---|---|---|---|---|---|---|---|
| 1777415056 | 20° C | 90% | 1015.2 hPa | 0 mm | - | 14 W/m² | - |
| 1777414756 | 20° C | 90% | 1015.7 hPa | 0 mm | - | 20 W/m² | - |
| 1777414452 | 20° C | 90% | 1015.9 hPa | 0 mm | - | 29 W/m² | - |
| 1777414151 | 20° C | 90% | 1015.4 hPa | 0 mm | - | 43 W/m² | - |
| 1777413848 | 20° C | 90% | 1015.7 hPa | 0 mm | - | 45 W/m² | - |
| 1777413542 | 20° C | 90% | 1015.9 hPa | 0 mm | - | 57 W/m² | - |
| 1777413238 | 20° C | 90% | 1016.4 hPa | 0 mm | - | 63 W/m² | - |
| 1777412934 | 20° C | 90% | 1016.3 hPa | 0 mm | - | 56 W/m² | - |
| 1777412633 | 20° C | 90% | 1016.4 hPa | 0 mm | - | 43 W/m² | - |
| 1777412330 | 20° C | 90% | 1016.4 hPa | 0 mm | - | 35 W/m² | - |
| 1777412026 | 20° C | 90% | 1016.3 hPa | 0 mm | - | 40 W/m² | - |
| 1777411726 | 20° C | 90% | 1016.3 hPa | 0 mm | - | 42 W/m² | - |
| 1777411421 | 20° C | 89% | 1016.1 hPa | 0 mm | - | 50 W/m² | - |
| 1777411121 | 20° C | 89% | 1015.9 hPa | 0 mm | - | 52 W/m² | - |
| 1777410820 | 20° C | 89% | 1015.9 hPa | 0 mm | - | 37 W/m² | - |
| 1777410519 | 20° C | 89% | 1016 hPa | 0 mm | - | 36 W/m² | - |
| 1777410219 | 20° C | 89% | 1015.8 hPa | 0 mm | - | 36 W/m² | - |
| 1777409914 | 20.56° C | 88% | 1015.8 hPa | 0 mm | - | 50 W/m² | - |
| 1777409610 | 20.56° C | 87% | 1016.1 hPa | 0 mm | - | 36 W/m² | - |
| 1777409306 | 20.56° C | 86% | 1016.3 hPa | 0 mm | - | 60 W/m² | - |
| 1777409002 | 20.56° C | 86% | 1016.4 hPa | 0 mm | - | 66 W/m² | - |
| 1777408699 | 20.56° C | 86% | 1016.4 hPa | 0 mm | - | 57 W/m² | - |
| 1777408394 | 21.11° C | 85% | 1017.1 hPa | 0 mm | - | 50 W/m² | - |
| 1777408089 | 21.11° C | 85% | 1017.3 hPa | 0 mm | - | 62 W/m² | - |
| 1777407785 | 20.56° C | 86% | 1017.1 hPa | 0 mm | - | 135 W/m² | - |
* Rain latest hour (hover to see other rain measurements)
** Current wind speed in m/s (hover to see current wind gust speed)